Back to catalog

STARLINK-34030

AliveCommunicationsVLEO
NORAD 64030·PAYLOAD·🇺🇸 United States

Launched May 16, 2025 from Vandenberg Space Force Base

Loading…

Next Passes (next 24 hours)

TLE

FreshSource: CelesTrak SupGP

Epoch: Sep 14, 2026, 21:22 UTC

1 64030C 25102J   26257.89076389 -.00037258  00000+0 -12965-2 0  2573
2 64030  70.0011 355.8490 0003597 270.0259  26.2224 15.29586813    14

Track STARLINK-34030 in real time with AllMySat

Download on the App Store